Regional Weather Roundup
Issued by NWS

Home | Current Version | Previous Version | Text Only | Print | Product List | Glossary On
Versions: 1 2 3 4 5 6 7 8 9 10 11 12 13 14 15 16 17 18 19 20 21 22 23 24 25 26 27 28 29 30 31 32 33 34 35 36 37 38 39 40 41 42 43 44 45 46 47 48 49 50
000
ASUS43 KIND 260509
RWRIN

WEATHER ROUNDUP FOR INDIANA
NATIONAL WEATHER SERVICE INDIANAPOLIS IN
100 AM EDT SUN OCT 26 2014

NOTE: "FAIR" INDICATES FEW OR NO CLOUDS BELOW 12,000 FEET WITH NO
SIGNIFICANT WEATHER AND/OR OBSTRUCTIONS TO VISIBILITY.

* - STATION DOES NOT REPORT WEATHER SUCH AS PRECIPITATION OR FOG.

+ - STATION NOT QUALITY CONTROLLED BY THE NATIONAL WEATHER SERVICE.
    USE DATA WITH CAUTION...ESPECIALLY DEWPOINT AND RELATIVE
    HUMIDITY OBSERVATIONS.

INZ001>003-010>013-019-020-260600-
NORTHWEST INDIANA

CITY           SKY/WX    TMP DP  RH WIND       PRES   REMARKS
GARY /AIRPORT/ CLEAR     58  27  29 NW10      29.97S
KNOX *+        CLEAR     51  33  49 NW7       29.95S
LA PORTE +     CLEAR     56  34  42 NW12      29.96S
MICHIGAN CITY+ CLEAR     55  34  44 NW7       29.96S
MONTICELLO +   CLEAR     48  35  61 CALM      29.96S
RENSSELAER +   CLEAR     50  34  53 W5        29.97S
VALPARAISO     CLEAR     57  30  35 NW9       29.96S

$$

LMZ046-743>745-260600-
SOUTHERN LAKE MICHIGAN

STATION/POSITION TIME  TEMP WIND        PRES
                       AIR  DIR/SP/G
                 (UTC) (F)  (DEG/KT/KT) (MB)
MICHIGAN CITY    0500   58  300/ 16/ 18   N/A

$$

INZ004-005-014>016-021>024-260600-
NORTH CENTRAL INDIANA

CITY           SKY/WX    TMP DP  RH WIND       PRES   REMARKS
GOSHEN         CLEAR     51  34  52 NW10      29.93R
LOGANSPORT +   CLEAR     54  32  43 NW5       29.96S
PERU/GRISSOM   CLEAR     51  36  55 NW7       29.95R
ROCHESTER +    CLEAR     54  32  43 W5        29.95S
SOUTH BEND     CLEAR     56  32  40 NW13      29.95S
WARSAW +       CLEAR     50  34  53 NW7       29.93S

$$

INZ006>009-017-018-025>027-260600-
NORTHEAST INDIANA

CITY           SKY/WX    TMP DP  RH WIND       PRES   REMARKS
ANGOLA *+      CLEAR     52  34  50 NW5       29.90S
AUBURN +       CLEAR     50  34  53 NW7       29.92R
FORT WAYNE     CLEAR     53  34  48 NW8       29.93R
HUNTINGTON +   CLEAR    N/A N/A N/A NW5       29.93S

$$

INZ028-029-035-036-043>045-051>053-260600-
WEST CENTRAL INDIANA

CITY           SKY/WX    TMP DP  RH WIND       PRES   REMARKS
GREENCASTLE +  CLEAR     59  41  51 NW5       29.99S
LAFAYETTE      CLEAR     54  33  45 NW6       29.98R
TERRE HAUTE    CLEAR     59  44  57 NW6       29.99S

$$

INZ030>032-037>040-046>048-054>057-064-065-260600-
CENTRAL INDIANA

CITY           SKY/WX    TMP DP  RH WIND       PRES   REMARKS
CP ATTERBURY + CLEAR     59  43  55 NW6       29.98R
FRANKFORT +    CLEAR     50  35  55 W6        29.98F
INDIANAPOLIS   NOT AVBL
-EAGLE CREEK   CLEAR     57  39  51 NW7       29.97S
KOKOMO *+      CLEAR     50  34  53 W8        29.96S
MARION +       CLEAR     48  36  63 W3        29.95S
MT COMFORT *+  CLEAR     55  23  28 NW8       29.97S
SHELBYVILLE    CLEAR     57  39  51 NW8       29.96S
ZIONSVILLE +   CLEAR     52  35  51 W5        29.98R

$$

INZ033-034-041-042-049-050-058-059-260600-
EAST CENTRAL INDIANA

CITY           SKY/WX    TMP DP  RH WIND       PRES   REMARKS
MUNCIE         CLEAR     53  37  54 W7        29.94S

$$

INZ060-061-067>069-081>083-085>088-260600-
SOUTHWEST INDIANA

CITY           SKY/WX    TMP DP  RH WIND       PRES   REMARKS
EVANSVILLE     CLEAR     56  52  86 CALM      29.99F
HUNTINGBURG *+ CLEAR     59  50  72 CALM      29.99S
WASHINGTON +   CLEAR     59  52  77 W5        29.98S

$$

INZ062-063-066-070>080-084-089>092-260600-
SOUTH CENTRAL AND SOUTHEAST INDIANA

CITY           SKY/WX    TMP DP  RH WIND       PRES   REMARKS
BLOOMINGTON    CLEAR     61  45  55 NW5       29.98S

$$




USA.gov is the U.S. government's official web portal to all federal, state and local government web resources and services.